Silver City, NM

1:46 AM MST on December 06, 2019 (GMT -0700)
Grant County

Weather History for KSVC - October, 2019

Change the Weather History Date:

Monday, October 21, 2019

  Actual Average (WUND) Record (WUND)
Temperature  
Mean Temperature 50 °F -  
Max Temperature 71 °F - - (-1)
Min Temperature 31 °F - - (-1)
Degree Days  
Heating Degree Days 14    
Moisture  
Dew Point 14 °F    
Average Humidity 26    
Maximum Humidity 52    
Minimum Humidity 9    
Precipitation  
Precipitation 0.00 in - - ()
Sea Level Pressure  
Sea Level Pressure 30.13 in    
Wind  
Wind Speed 10 mph (NW)    
Max Wind Speed 18 mph    
Max Gust Speed 24 mph    
Visibility 10 miles    
Events      
Averages and records for this station are not official NWS values.
T = Trace of Precipitation, MM = Missing Value Source: NWS Daily Summary

Daily Weather History Graph

Daily Weather History Graph

Search for Another Location

Airport or City:

Astronomy

Oct. 21, 2019 Rise Set
Actual Time 7:21 AM MDT 6:32 PM MDT
Civil Twilight 6:56 AM MDT 6:57 PM MDT
Nautical Twilight 6:27 AM MDT 7:26 PM MDT
Astronomical Twilight 5:58 AM MDT 7:55 PM MDT
Moon No Moon Rise 2:30 PM MDT (10/21)
Length of Visible Light 12h 01m
Length of Day
11h 11m
Waning Gibbous, 47% of the Moon is Illuminated
Oct 21
Waning Gibbous
Oct 27
New
Nov 4
First Quarter
Nov 12
Full
Nov 19
Last Quarter

Hourly Weather History & Observations

Time (MDT) Temp. Windchill Dew Point Humidity Pressure Visibility Wind Dir Wind Speed Gust Speed Precip Events Conditions
12:15 AM 40.6 °F 34.8 °F 18.5 °F 41% 30.05 in 10.0 mi North 9.2 mph - N/A   Clear
12:35 AM 41.2 °F 35.5 °F 18.5 °F 40% 30.06 in 10.0 mi North 9.2 mph - N/A   Clear
12:55 AM 41.9 °F 35.4 °F 17.6 °F 38% 30.06 in 10.0 mi North 11.5 mph - N/A   Clear
1:15 AM 41.7 °F 35.6 °F 16.7 °F 36% 30.06 in 10.0 mi NNW 10.4 mph - N/A   Clear
1:35 AM 37.6 °F 30.5 °F 17.1 °F 43% 30.07 in 10.0 mi North 10.4 mph - N/A   Clear
1:55 AM 40.6 °F 34.3 °F 16.3 °F 37% 30.07 in 10.0 mi North 10.4 mph - N/A   Clear
2:15 AM 39.2 °F 33.0 °F 16.7 °F 40% 30.07 in 10.0 mi North 9.2 mph - N/A   Clear
2:35 AM 37.8 °F 31.3 °F 16.7 °F 42% 30.07 in 10.0 mi North 9.2 mph - N/A   Clear
2:55 AM 33.8 °F 27.0 °F 16.9 °F 50% 30.07 in 10.0 mi North 8.1 mph - N/A   Clear
3:15 AM 34.9 °F 29.0 °F 16.7 °F 48% 30.07 in 10.0 mi NW 6.9 mph - N/A   Clear
3:35 AM 36.0 °F 29.6 °F 16.7 °F 46% 30.07 in 10.0 mi NNW 8.1 mph - N/A   Clear
3:55 AM 35.6 °F 28.6 °F 16.3 °F 46% 30.08 in 10.0 mi NNW 9.2 mph - N/A   Clear
4:15 AM 36.0 °F 32.1 °F 16.2 °F 45% 30.07 in 10.0 mi North 4.6 mph - N/A   Clear
4:35 AM 35.2 °F 28.1 °F 15.4 °F 44% 30.06 in 10.0 mi North 9.2 mph - N/A   Clear
4:55 AM 34.9 °F 32.0 °F 16.2 °F 46% 30.07 in 10.0 mi West 3.5 mph - N/A   Clear
5:15 AM 35.6 °F 30.7 °F 14.9 °F 43% 30.08 in 10.0 mi North 5.8 mph - N/A   Clear
5:35 AM 33.3 °F 26.4 °F 15.4 °F 48% 30.09 in 10.0 mi NNW 8.1 mph - N/A   Clear
5:55 AM 36.1 °F 29.3 °F 14.9 °F 42% 30.09 in 10.0 mi NNW 9.2 mph - N/A   Clear
6:15 AM 32.0 °F 24.8 °F 14.9 °F 49% 30.09 in 10.0 mi NW 8.1 mph - N/A   Clear
6:35 AM 31.1 °F 23.1 °F 15.4 °F 52% 30.09 in 10.0 mi NNW 9.2 mph - N/A   Clear
6:55 AM 34.0 °F 26.6 °F 14.9 °F 46% 30.10 in 10.0 mi North 9.2 mph - N/A   Clear
7:15 AM 35.6 °F 31.7 °F 14.5 °F 42% 30.11 in 10.0 mi North 4.6 mph - N/A   Clear
7:35 AM 32.0 °F 24.2 °F 15.1 °F 50% 30.12 in 10.0 mi North 9.2 mph - N/A   Clear
7:55 AM 35.8 °F 28.8 °F 15.6 °F 44% 30.12 in 10.0 mi North 9.2 mph - N/A   Clear
8:15 AM 42.1 °F 37.7 °F 15.8 °F 35% 30.13 in 10.0 mi NW 6.9 mph - N/A   Clear
8:35 AM 47.5 °F - 13.6 °F 26% 30.15 in 10.0 mi NNW 9.2 mph - N/A   Clear
8:55 AM 49.5 °F - 14.0 °F 24% 30.16 in 10.0 mi NW 11.5 mph - N/A   Clear
9:15 AM 52.0 °F - 14.0 °F 22% 30.17 in 10.0 mi NW 8.1 mph - N/A   Clear
9:35 AM 54.5 °F - 13.6 °F 20% 30.18 in 10.0 mi WNW 8.1 mph - N/A   Clear
9:55 AM 56.3 °F - 12.9 °F 18% 30.17 in 10.0 mi WNW 5.8 mph - N/A   Clear
10:15 AM 58.1 °F - 11.5 °F 16% 30.17 in 10.0 mi NW 5.8 mph - N/A   Clear
10:35 AM 60.1 °F - 12.2 °F 15% 30.17 in 10.0 mi WNW 9.2 mph - N/A   Clear
10:55 AM 61.9 °F - 11.7 °F 14% 30.17 in 10.0 mi WNW 10.4 mph - N/A   Clear
11:15 AM 64.4 °F - 12.7 °F 13% 30.17 in 10.0 mi West 10.4 mph - N/A   Clear
11:35 AM 64.0 °F - 11.7 °F 13% 30.16 in 10.0 mi West 10.4 mph 16.1 mph N/A   Clear
11:55 AM 64.9 °F - 11.7 °F 13% 30.16 in 10.0 mi West 12.7 mph - N/A   Clear
12:15 PM 66.7 °F - 12.0 °F 12% 30.16 in 10.0 mi WNW 12.7 mph 18.4 mph N/A   Clear
12:35 PM 67.3 °F - 11.5 °F 11% 30.15 in 10.0 mi WNW 10.4 mph 18.4 mph N/A   Clear
12:55 PM 68.0 °F - 11.1 °F 11% 30.14 in 10.0 mi West 10.4 mph 16.1 mph N/A   Clear
1:15 PM 68.4 °F - 9.7 °F 10% 30.14 in 10.0 mi NW 16.1 mph 19.6 mph N/A   Clear
1:35 PM 68.9 °F - 9.5 °F 10% 30.14 in 10.0 mi WNW 9.2 mph 18.4 mph N/A   Clear
1:55 PM 69.8 °F - 8.2 °F 9% 30.12 in 10.0 mi WNW 11.5 mph 21.9 mph N/A   Clear
2:15 PM 69.8 °F - 7.5 °F 9% 30.12 in 10.0 mi WNW 17.3 mph - N/A   Clear
2:35 PM 69.6 °F - 8.6 °F 9% 30.10 in 10.0 mi West 11.5 mph 23.0 mph N/A   Clear
2:55 PM 70.2 °F - 10.8 °F 10% 30.09 in 10.0 mi WNW 12.7 mph 24.2 mph N/A   Clear
3:15 PM 70.5 °F - 11.8 °F 10% 30.09 in 10.0 mi NW 11.5 mph 24.2 mph N/A   Clear
3:35 PM 70.7 °F - 12.0 °F 10% 30.09 in 10.0 mi WNW 13.8 mph 18.4 mph N/A   Clear
3:55 PM 70.7 °F - 12.4 °F 11% 30.10 in 10.0 mi West 10.4 mph 21.9 mph N/A   Clear
4:15 PM 70.5 °F - 12.7 °F 11% 30.09 in 10.0 mi WNW 15.0 mph 20.7 mph N/A   Clear
4:35 PM 69.8 °F - 12.2 °F 11% 30.10 in 10.0 mi WNW 16.1 mph 19.6 mph N/A   Clear
4:55 PM 69.8 °F - 12.2 °F 11% 30.10 in 10.0 mi West 18.4 mph - N/A   Clear
5:15 PM 69.3 °F - 12.0 °F 11% 30.10 in 10.0 mi WNW 13.8 mph - N/A   Clear
5:35 PM 68.5 °F - 11.7 °F 11% 30.10 in 10.0 mi West 16.1 mph - N/A   Clear
5:55 PM 67.3 °F - 11.5 °F 11% 30.11 in 10.0 mi West 15.0 mph - N/A   Clear
6:15 PM 65.5 °F - 10.9 °F 12% 30.12 in 10.0 mi West 9.2 mph - N/A   Clear
6:35 PM 62.4 °F - 10.6 °F 13% 30.12 in 10.0 mi West 8.1 mph - N/A   Clear
6:55 PM 59.0 °F - 11.8 °F 16% 30.13 in 10.0 mi West 5.8 mph - N/A   Clear
7:15 PM 56.8 °F - 12.6 °F 17% 30.14 in 10.0 mi Calm Calm - N/A   Clear
7:35 PM 52.7 °F - 13.1 °F 21% 30.15 in 10.0 mi NNW 9.2 mph - N/A   Clear
7:55 PM 53.6 °F - 12.9 °F 20% 30.16 in 10.0 mi NNW 10.4 mph - N/A   Clear
8:15 PM 52.0 °F - 13.5 °F 22% 30.17 in 10.0 mi NNW 12.7 mph - N/A   Clear
8:35 PM 50.4 °F - 13.6 °F 23% 30.18 in 10.0 mi NNW 11.5 mph - N/A   Clear
8:55 PM 48.7 °F - 14.5 °F 26% 30.18 in 10.0 mi NNW 8.1 mph - N/A   Clear
9:15 PM 47.8 °F - 15.1 °F 27% 30.19 in 10.0 mi North 8.1 mph - N/A   Clear
9:35 PM 48.4 °F - 15.1 °F 26% 30.19 in 10.0 mi North 9.2 mph - N/A   Clear
9:55 PM 48.4 °F - 14.9 °F 26% 30.20 in 10.0 mi North 9.2 mph - N/A   Clear
10:15 PM 49.8 °F - 15.3 °F 25% 30.21 in 10.0 mi North 9.2 mph - N/A   Clear
10:35 PM 45.5 °F 40.3 °F 15.4 °F 30% 30.22 in 10.0 mi NNW 10.4 mph - N/A   Clear
10:55 PM 47.1 °F - 15.8 °F 29% 30.22 in 10.0 mi North 10.4 mph - N/A   Clear
11:15 PM 48.0 °F - 15.6 °F 27% 30.23 in 10.0 mi North 11.5 mph - N/A   Clear
11:35 PM 44.8 °F 40.4 °F 15.4 °F 31% 30.23 in 10.0 mi North 8.1 mph - N/A   Clear
11:55 PM 47.3 °F - 14.9 °F 27% 30.24 in 10.0 mi NNW 5.8 mph - N/A   Clear